This is the latest recevied weather packets stored in our database for station/object KO6LQJ. If no packets are shown the sender has not sent any weather packets the latest 10 day(s).
| Time | Temp. | Humidity | Pressure | Rain* | Wind** | Luminosity | Snow |
|---|---|---|---|---|---|---|---|
| 1777677818 | 26.67° C | 46% | 1013.3 hPa | 0 mm | - | 60 W/m² | - |
| 1777677515 | 26.67° C | 46% | 1013.2 hPa | 0 mm | - | 60 W/m² | - |
| 1777677213 | 27.22° C | 45% | 1013 hPa | 0 mm | - | 60 W/m² | - |
| 1777676911 | 27.22° C | 46% | 1013.3 hPa | 0 mm | - | 61 W/m² | - |
| 1777676610 | 27.22° C | 45% | 1013.2 hPa | 0 mm | - | 62 W/m² | - |
| 1777676307 | 27.22° C | 46% | 1013.2 hPa | 0 mm | - | 64 W/m² | - |
| 1777676005 | 26.11° C | 48% | 1013.4 hPa | 0 mm | - | 65 W/m² | - |
| 1777675700 | 26.67° C | 46% | 1013.4 hPa | 0 mm | - | 174 W/m² | - |
| 1777675398 | 26.67° C | 47% | 1013.4 hPa | 0 mm | - | 71 W/m² | - |
| 1777675094 | 26.67° C | 47% | 1013.5 hPa | 0 mm | - | 500 W/m² | - |
| 1777674790 | 26.67° C | 46% | 1013.4 hPa | 0 mm | - | 81 W/m² | - |
| 1777674487 | 26.67° C | 46% | 1013.6 hPa | 0 mm | - | 76 W/m² | - |
| 1777674185 | 27.22° C | 45% | 1013.7 hPa | 0 mm | - | 70 W/m² | - |
| 1777673881 | 26.67° C | 46% | 1013.8 hPa | 0 mm | - | 73 W/m² | - |
| 1777673578 | 26.67° C | 46% | 1013.8 hPa | 0 mm | - | 175 W/m² | - |
| 1777673276 | 26.67° C | 46% | 1013.9 hPa | 0 mm | - | 119 W/m² | - |
| 1777672973 | 27.22° C | 47% | 1014.1 hPa | 0 mm | - | 604 W/m² | - |
| 1777672670 | 27.22° C | 45% | 1014.1 hPa | 0 mm | - | 84 W/m² | - |
| 1777672364 | 27.22° C | 45% | 1014.2 hPa | 0 mm | - | 84 W/m² | - |
| 1777672060 | 27.22° C | 45% | 1014.3 hPa | 0 mm | - | 422 W/m² | - |
| 1777671756 | 27.22° C | 45% | 1014.3 hPa | 0 mm | - | 592 W/m² | - |
| 1777671453 | 27.78° C | 45% | 1014.3 hPa | 0 mm | - | 574 W/m² | - |
| 1777671149 | 27.22° C | 44% | 1014.3 hPa | 0 mm | - | 98 W/m² | - |
| 1777670845 | 27.22° C | 44% | 1014.6 hPa | 0 mm | - | 230 W/m² | - |
| 1777670542 | 27.22° C | 44% | 1014.5 hPa | 0 mm | - | 415 W/m² | - |
* Rain latest hour (hover to see other rain measurements)
** Current wind speed in m/s (hover to see current wind gust speed)